Terug naar catalogus

SUPERBIRD B1

ActiefCommunicatieGEO
NORAD 21893·PAYLOAD·🇯🇵 Japan

Gelanceerd Feb 26, 1992 vanaf Guiana Space Centre

Loading…

TLE

VersSource: Space-Track

Epoch: Sep 14, 2026, 09:43 UTC

1 21893U 92010A   26257.40536517  .00000038  00000-0  00000-0 0  9999
2 21893  14.6169   5.6446 0012949 141.7974 228.9686  0.99054002125205

Volg SUPERBIRD B1 in realtime met AllMySat

Download on the App Store